Weather in Hrebinky

Ukraine / Kyiv Region     49°57′22″N   30°10′26″E
temp.,
°C
wind,
m/s
gust,
m/s
humid.,
%
clouds,
%
prec.,
mm/h
press.,
hPa
HPBL,
m
28 november, sun
sun2823:00+5wnw22835 0.0 100325
02:00+4w11845 0.0 100510
05:00+4sse33895 0.0 100425
08:00+4sse359065 0.0 100578
11:00+8sse367398 0.0 1004228
14:00+10se4869100 0.0 1002346
17:00+7se51181100 0.0 1001216
20:00+8sse51389100 0.7 1001402
29 november, mon
mon2923:00+9sse61293100 0.0 1000406
02:00+7sse51296100 0.0 999329
05:00+8sse71290100 0.0 997600
08:00+8se51394100 0.0 995431
11:00+9sse51090100 0.0 992701
14:00+10s5878100 0.1 989832
17:00+9wsw2586100 0.1 986161
20:00+8wnw61087100 0.1 985702
30 november, tue
tue3023:00+1w101995100 3.1 990858
02:00+2w111777100 3.6 9931134
05:00+2w101769100 0.0 9951202
08:00+1w9167765 0.0 998954
11:00+2w101567100 0.0 10001202
14:00+2w8147183 0.0 9991260
17:00+1wnw8137153 0.0 1000943
20:00−1w613745 0.0 1001658
1 december, wed
wed123:00−2w61380100 0.0 1000543
02:00−1wsw51477100 0.0 1000683
05:00−2sw71495100 0.3 998699
08:000sw81596100 1.6 998761
11:00+1w71291100 0.2 9991033
14:00+1wnw71193100 0.3 1001941
17:00+1w51294100 0.2 1003655
20:000wsw3794100 0.2 1004182
2 december, thu
thu223:00+1sw61196100 0.1 1004451
02:00+3sw71691100 2.1 1003757
05:00+3sw61580100 0.0 1002406
08:00+3sw6157885 0.0 1003443
11:00+6sw6127380 0.0 1003666
14:00+7wsw51166100 0.0 1003635
17:00+4ssw4117869 0.0 1004228
20:00+3ssw412815 0.0 1004225